User: anonymous   Login
Location: Hepcat Sky Observatory
(29.9800°N, 95.6500°W)
Time: 02:03:20
(UTC-06:00)
Language:

SL-16 Debris - Orbit

View from above orbital plane
View from above orbital plane
View from above satellite
View from above satellite

Ground track
Ground track

The orbit data is extracted from the following two-line orbital elements,

1 26076U 99040E   14306.94605675  .00016916  00000-0  11718-2 0  4515
2 26076 028.4834 278.6016 4672973 330.2348 265.9301 06.23683832251840
Epoch (UTC): 02 November 2014 22:42:19
Eccentricity: 0.4672973
inclination: 28.4834°
perigee height: 263 km
apogee height: 11914 km
right ascension of ascending node: 278.6016°
argument of perigee: 330.2348°
revolutions per day: 6.23683832
mean anomaly at epoch: 265.9301°
orbit number at epoch: 25184

The dashed part of the orbit path shows where the satellite is in the earth's shadow,  

DLR